QPF
0.01 0.01 0.01 0.01 0.01 0.01 0.02 0.02 0.02 0.01 0.00 0.01 0.01 0.01 0.01 0.00 0.00 0.00 0.00 0.00 0.01 0.01 0.01 0.01 0.01 0.01 0.01 0.01 0.02 0.02 0.02 0.01 0.02 0.02 0.01 0.01 0.01 0.01 0.01 0.01 0.01 0.01 0.01 0.01
0.01 0.00 0.00 0.01 0.01 0.01 0.01 0.01 0.02 0.01 0.01 0.01 0.01 0.00 0.00 0.00 0.00 0.00 0.00 0.00 0.01 0.01 0.01 0.01 0.01 0.01 0.01 0.01 0.02 0.02 0.02 0.01 0.01 0.02 0.02 0.01 0.01 0.01 0.01 0.01 0.01 0.01 0.01 0.01
0.02 0.00 0.01 0.01 0.01 0.01 0.01 0.02 0.02 0.02 0.01 0.01 0.00 0.01 0.01 0.00 0.00 0.01 0.01 0.01 0.01 0.01 0.01 0.01 0.01 0.01 0.01 0.01 0.02 0.02 0.02 0.02 0.01 0.01 0.02 0.02 0.01 0.01 0.01 0.01 0.01 0.01 0.01 0.01
0.03 0.01 0.02 0.02 0.01 0.00 0.01 0.02 0.02 0.01 0.01 0.01 0.01 0.01 0.01 0.00 0.00 0.01 0.01 0.01 0.01 0.01 0.01 0.01 0.01 0.01 0.01 0.01 0.02 0.02 0.02 0.02 0.01 0.01 0.01 0.02 0.01 0.01 0.01 0.01 0.01 0.01 0.01 0.01
0.05 0.03 0.01 0.01 0.01 0.01 0.01 0.02 0.02 0.01 0.01 0.01 0.01 0.01 0.01 0.01 0.01 0.01 0.01 0.01 0.01 0.01 0.01 0.01 0.01 0.01 0.02 0.02 0.01 0.02 0.02 0.02 0.01 0.01 0.01 0.02 0.02 0.01 0.01 0.01 0.01 0.01 0.01 0.02
0.06 0.05 0.03 0.02 0.01 0.01 0.02 0.03 0.01 0.01 0.01 0.01 0.01 0.02 0.01 0.01 0.01 0.00 0.00 0.01 0.01 0.01 0.01 0.01 0.01 0.02 0.02 0.02 0.01 0.02 0.02 0.03 0.02 0.02 0.01 0.02 0.02 0.01 0.01 0.01 0.01 0.01 0.01 0.02
0.04 0.04 0.02 0.01 0.00 0.01 0.03 0.03 0.01 0.01 0.01 0.01 0.01 0.02 0.02 0.01 0.01 0.00 0.00 0.01 0.01 0.01 0.01 0.01 0.01 0.02 0.02 0.02 0.02 0.02 0.02 0.02 0.02 0.02 0.01 0.02 0.02 0.01 0.01 0.01 0.01 0.01 0.01 0.01
0.04 0.06 0.03 0.01 0.01 0.02 0.02 0.01 0.00 0.01 0.01 0.01 0.01 0.01 0.02 0.01 0.01 0.00 0.00 0.01 0.01 0.01 0.02 0.02 0.01 0.01 0.02 0.02 0.02 0.02 0.02 0.02 0.02 0.01 0.01 0.02 0.01 0.01 0.01 0.01 0.01 0.01 0.01 0.01
0.03 0.03 0.02 0.01 0.02 0.01 0.01 0.01 0.01 0.01 0.02 0.02 0.02 0.01 0.02 0.02 0.01 0.00 0.00 0.01 0.01 0.01 0.02 0.03 0.01 0.01 0.01 0.02 0.02 0.02 0.02 0.02 0.01 0.01 0.01 0.01 0.01 0.01 0.01 0.01 0.01 0.01 0.01 0.01
0.01 0.01 0.01 0.01 0.01 0.01 0.01 0.02 0.02 0.02 0.02 0.02 0.01 0.01 0.02 0.02 0.01 0.00 0.00 0.01 0.01 0.01 0.02 0.03 0.02 0.01 0.01 0.01 0.02 0.02 0.02 0.02 0.02 0.01 0.01 0.01 0.02 0.01 0.01 0.01 0.01 0.01 0.01 0.01
0.01 0.00 0.00 0.01 0.01 0.01 0.01 0.01 0.02 0.01 0.01 0.01 0.02 0.01 0.02 0.02 0.01 0.00 0.00 0.01 0.01 0.01 0.02 0.02 0.01 0.01 0.01 0.01 0.01 0.02 0.02 0.02 0.02 0.01 0.01 0.02 0.02 0.02 0.01 0.01 0.01 0.01 0.01 0.01
0.03 0.01 0.02 0.02 0.02 0.02 0.02 0.02 0.02 0.02 0.01 0.01 0.01 0.02 0.02 0.02 0.02 0.01 0.01 0.01 0.01 0.01 0.01 0.01 0.01 0.01 0.01 0.01 0.01 0.02 0.01 0.01 0.02 0.02 0.02 0.02 0.02 0.02 0.02 0.02 0.02 0.01 0.01 0.01
0.02 0.01 0.03 0.03 0.03 0.02 0.02 0.02 0.02 0.02 0.03 0.03 0.02 0.02 0.01 0.01 0.01 0.01 0.01 0.01 0.01 0.01 0.01 0.01 0.01 0.01 0.01 0.01 0.01 0.02 0.02 0.01 0.02 0.02 0.02 0.02 0.02 0.02 0.02 0.02 0.02 0.02 0.01 0.01
0.01 0.02 0.03 0.03 0.03 0.02 0.02 0.02 0.02 0.02 0.03 0.03 0.03 0.02 0.01 0.01 0.01 0.01 0.01 0.01 0.01 0.01 0.01 0.01 0.01 0.01 0.01 0.01 0.02 0.02 0.01 0.02 0.02 0.02 0.02 0.02 0.02 0.02 0.02 0.02 0.02 0.01 0.01 0.01
0.02 0.02 0.03 0.03 0.02 0.02 0.03 0.03 0.02 0.02 0.02 0.02 0.02 0.02 0.02 0.02 0.02 0.01 0.01 0.01 0.01 0.01 0.01 0.00 0.00 0.01 0.01 0.01 0.02 0.02 0.02 0.02 0.02 0.02 0.02 0.03 0.03 0.02 0.02 0.02 0.02 0.02 0.02 0.02
0.02 0.02 0.02 0.02 0.03 0.03 0.03 0.03 0.03 0.02 0.02 0.02 0.02 0.02 0.03 0.03 0.02 0.02 0.01 0.01 0.01 0.01 0.01 0.01 0.01 0.01 0.01 0.01 0.01 0.02 0.02 0.02 0.02 0.02 0.02 0.02 0.03 0.03 0.03 0.03 0.02 0.02 0.03 0.03
0.03 0.03 0.02 0.02 0.02 0.02 0.02 0.03 0.03 0.03 0.02 0.02 0.02 0.03 0.03 0.03 0.02 0.02 0.02 0.02 0.02 0.02 0.01 0.01 0.01 0.01 0.01 0.01 0.01 0.02 0.02 0.02 0.02 0.02 0.02 0.03 0.03 0.03 0.03 0.03 0.03 0.03 0.03 0.03
0.03 0.03 0.03 0.03 0.03 0.03 0.02 0.02 0.02 0.02 0.02 0.02 0.02 0.02 0.02 0.03 0.03 0.03 0.03 0.03 0.02 0.02 0.02 0.02 0.01 0.01 0.01 0.01 0.01 0.02 0.02 0.02 0.02 0.02 0.03 0.03 0.03 0.03 0.03 0.03 0.03 0.03 0.03 0.03
0.02 0.03 0.03 0.03 0.03 0.03 0.02 0.02 0.02 0.02 0.02 0.02 0.02 0.02 0.03 0.02 0.03 0.03 0.04 0.04 0.03 0.03 0.03 0.03 0.02 0.02 0.02 0.02 0.02 0.02 0.02 0.02 0.03 0.03 0.03 0.03 0.03 0.03 0.03 0.03 0.03 0.03 0.03 0.03
0.01 0.02 0.02 0.02 0.02 0.02 0.02 0.02 0.02 0.02 0.02 0.02 0.02 0.02 0.02 0.02 0.03 0.03 0.04 0.05 0.05 0.04 0.04 0.03 0.02 0.02 0.02 0.02 0.02 0.02 0.02 0.02 0.02 0.03 0.03 0.03 0.03 0.03 0.03 0.04 0.03 0.03 0.03 0.03
0.01 0.01 0.01 0.01 0.01 0.01 0.01 0.01 0.01 0.02 0.02 0.02 0.02 0.03 0.03 0.03 0.03 0.04 0.03 0.04 0.05 0.05 0.04 0.03 0.02 0.02 0.02 0.02 0.02 0.02 0.02 0.02 0.02 0.02 0.03 0.03 0.03 0.04 0.04 0.04 0.04 0.03 0.03 0.04
0.01 0.01 0.01 0.01 0.01 0.01 0.01 0.01 0.01 0.02 0.02 0.02 0.03 0.03 0.03 0.03 0.04 0.03 0.03 0.04 0.04 0.04 0.03 0.03 0.03 0.03 0.02 0.02 0.02 0.02 0.02 0.02 0.02 0.02 0.02 0.03 0.03 0.03 0.03 0.04 0.04 0.04 0.04 0.04
0.01 0.01 0.01 0.01 0.01 0.02 0.02 0.02 0.02 0.02 0.02 0.02 0.03 0.03 0.03 0.04 0.04 0.03 0.03 0.03 0.04 0.03 0.03 0.03 0.03 0.03 0.02 0.02 0.02 0.02 0.02 0.02 0.02 0.02 0.03 0.03 0.03 0.03 0.03 0.03 0.04 0.04 0.04 0.03
0.01 0.01 0.01 0.01 0.01 0.01 0.02 0.02 0.02 0.02 0.02 0.02 0.03 0.03 0.03 0.03 0.03 0.03 0.03 0.04 0.04 0.03 0.03 0.04 0.03 0.03 0.02 0.02 0.02 0.02 0.02 0.02 0.02 0.02 0.02 0.02 0.03 0.03 0.03 0.03 0.03 0.03 0.03 0.03
0.01 0.01 0.01 0.01 0.01 0.01 0.02 0.02 0.02 0.02 0.02 0.02 0.02 0.03 0.03 0.03 0.03 0.03 0.03 0.04 0.04 0.03 0.03 0.04 0.04 0.03 0.02 0.02 0.02 0.02 0.02 0.02 0.02 0.02 0.02 0.03 0.03 0.03 0.03 0.03 0.03 0.03 0.03 0.03
0.01 0.01 0.01 0.01 0.02 0.02 0.02 0.02 0.02 0.02 0.02 0.02 0.02 0.03 0.03 0.03 0.03 0.03 0.03 0.04 0.04 0.03 0.03 0.04 0.04 0.03 0.03 0.03 0.03 0.02 0.02 0.02 0.02 0.02 0.03 0.03 0.03 0.03 0.03 0.03 0.03 0.03 0.03 0.04
0.01 0.01 0.01 0.01 0.01 0.01 0.02 0.02 0.02 0.02 0.02 0.02 0.02 0.02 0.03 0.03 0.03 0.03 0.03 0.03 0.03 0.03 0.03 0.03 0.03 0.03 0.03 0.03 0.03 0.03 0.02 0.03 0.03 0.03 0.03 0.03 0.03 0.03 0.03 0.03 0.03 0.03 0.03 0.03
MSLP
1022.29 1021.88 1021.58 1021.45 1021.53 1021.82 1022.29 1022.89 1023.56 1024.23 1024.85 1025.37 1025.77 1026.04 1026.20 1026.28 1026.31 1026.31 1026.30 1026.27 1026.24 1026.18 1026.09 1025.96 1025.77 1025.52 1025.23 1024.89 1024.52 1024.13 1023.72 1023.30 1022.86 1022.39 1021.89 1021.35 1020.76 1020.14 1019.47 1018.79 1018.09 1017.40 1016.73 1016.10
1024.08 1023.78 1023.59 1023.53 1023.65 1023.93 1024.35 1024.86 1025.39 1025.88 1026.31 1026.62 1026.82 1026.91 1026.91 1026.87 1026.81 1026.75 1026.71 1026.68 1026.65 1026.60 1026.51 1026.36 1026.14 1025.86 1025.51 1025.12 1024.71 1024.27 1023.84 1023.41 1022.98 1022.53 1022.05 1021.54 1020.97 1020.35 1019.68 1018.98 1018.24 1017.51 1016.78 1016.08
1025.80 1025.63 1025.54 1025.57 1025.72 1025.99 1026.34 1026.72 1027.10 1027.41 1027.63 1027.74 1027.75 1027.67 1027.55 1027.41 1027.28 1027.19 1027.14 1027.11 1027.09 1027.04 1026.94 1026.76 1026.51 1026.17 1025.76 1025.31 1024.83 1024.35 1023.88 1023.43 1022.99 1022.56 1022.10 1021.60 1021.05 1020.44 1019.78 1019.06 1018.31 1017.55 1016.79 1016.06
1027.25 1027.19 1027.19 1027.28 1027.46 1027.71 1027.99 1028.27 1028.50 1028.65 1028.69 1028.64 1028.49 1028.28 1028.06 1027.85 1027.69 1027.58 1027.53 1027.51 1027.50 1027.44 1027.33 1027.12 1026.82 1026.42 1025.95 1025.43 1024.90 1024.37 1023.86 1023.39 1022.94 1022.50 1022.04 1021.55 1021.01 1020.41 1019.75 1019.03 1018.29 1017.52 1016.76 1016.01
1028.25 1028.27 1028.35 1028.49 1028.69 1028.92 1029.16 1029.35 1029.48 1029.51 1029.43 1029.26 1029.01 1028.73 1028.45 1028.21 1028.04 1027.93 1027.88 1027.87 1027.85 1027.79 1027.65 1027.41 1027.06 1026.61 1026.09 1025.51 1024.93 1024.35 1023.81 1023.31 1022.84 1022.38 1021.92 1021.42 1020.88 1020.27 1019.62 1018.91 1018.17 1017.42 1016.67 1015.93
1028.77 1028.84 1028.97 1029.15 1029.36 1029.59 1029.80 1029.96 1030.04 1030.01 1029.87 1029.65 1029.37 1029.06 1028.77 1028.53 1028.35 1028.25 1028.21 1028.19 1028.16 1028.07 1027.90 1027.62 1027.23 1026.74 1026.17 1025.56 1024.94 1024.33 1023.76 1023.23 1022.73 1022.25 1021.76 1021.24 1020.67 1020.06 1019.40 1018.70 1017.98 1017.24 1016.52 1015.81
1028.86 1028.96 1029.11 1029.31 1029.55 1029.80 1030.02 1030.18 1030.26 1030.24 1030.11 1029.90 1029.64 1029.35 1029.08 1028.86 1028.69 1028.59 1028.53 1028.49 1028.43 1028.30 1028.09 1027.77 1027.35 1026.82 1026.23 1025.59 1024.95 1024.33 1023.73 1023.17 1022.64 1022.12 1021.59 1021.03 1020.43 1019.79 1019.11 1018.41 1017.70 1017.00 1016.31 1015.63
1028.69 1028.79 1028.95 1029.16 1029.43 1029.70 1029.96 1030.18 1030.31 1030.34 1030.28 1030.13 1029.92 1029.69 1029.46 1029.25 1029.09 1028.98 1028.89 1028.80 1028.68 1028.51 1028.24 1027.88 1027.42 1026.88 1026.27 1025.63 1024.99 1024.35 1023.74 1023.15 1022.58 1022.01 1021.42 1020.80 1020.15 1019.47 1018.77 1018.06 1017.35 1016.67 1016.01 1015.37
1028.43 1028.51 1028.67 1028.90 1029.19 1029.52 1029.84 1030.12 1030.33 1030.46 1030.49 1030.43 1030.30 1030.12 1029.93 1029.75 1029.58 1029.43 1029.28 1029.13 1028.94 1028.69 1028.37 1027.97 1027.48 1026.92 1026.32 1025.68 1025.04 1024.40 1023.77 1023.16 1022.54 1021.91 1021.25 1020.57 1019.85 1019.11 1018.37 1017.64 1016.93 1016.26 1015.62 1015.01
1028.27 1028.32 1028.47 1028.71 1029.03 1029.41 1029.79 1030.15 1030.46 1030.68 1030.80 1030.83 1030.78 1030.66 1030.50 1030.31 1030.11 1029.91 1029.70 1029.46 1029.19 1028.87 1028.48 1028.03 1027.52 1026.96 1026.36 1025.74 1025.10 1024.46 1023.82 1023.16 1022.49 1021.80 1021.07 1020.30 1019.51 1018.71 1017.92 1017.16 1016.43 1015.76 1015.14 1014.54
1028.30 1028.33 1028.47 1028.72 1029.06 1029.47 1029.91 1030.34 1030.72 1031.02 1031.22 1031.32 1031.32 1031.24 1031.09 1030.88 1030.64 1030.37 1030.08 1029.75 1029.40 1029.00 1028.56 1028.07 1027.54 1026.98 1026.38 1025.77 1025.14 1024.50 1023.83 1023.14 1022.42 1021.65 1020.84 1020.00 1019.13 1018.27 1017.43 1016.62 1015.88 1015.19 1014.57 1013.98
1028.54 1028.55 1028.68 1028.93 1029.28 1029.71 1030.18 1030.64 1031.07 1031.42 1031.67 1031.81 1031.83 1031.76 1031.59 1031.36 1031.07 1030.73 1030.36 1029.96 1029.53 1029.07 1028.58 1028.06 1027.51 1026.94 1026.35 1025.75 1025.12 1024.47 1023.78 1023.05 1022.27 1021.43 1020.55 1019.64 1018.71 1017.79 1016.90 1016.06 1015.29 1014.59 1013.95 1013.35
1028.93 1028.93 1029.05 1029.28 1029.63 1030.05 1030.51 1030.97 1031.40 1031.75 1032.01 1032.15 1032.18 1032.09 1031.91 1031.64 1031.31 1030.92 1030.49 1030.03 1029.55 1029.04 1028.52 1027.97 1027.42 1026.85 1026.26 1025.65 1025.02 1024.35 1023.63 1022.86 1022.03 1021.14 1020.21 1019.24 1018.26 1017.29 1016.37 1015.51 1014.71 1014.00 1013.34 1012.72
1029.35 1029.34 1029.44 1029.66 1029.97 1030.36 1030.78 1031.21 1031.60 1031.92 1032.14 1032.27 1032.27 1032.16 1031.96 1031.67 1031.31 1030.89 1030.43 1029.95 1029.44 1028.91 1028.37 1027.82 1027.25 1026.68 1026.08 1025.47 1024.82 1024.12 1023.38 1022.57 1021.71 1020.78 1019.81 1018.81 1017.80 1016.82 1015.87 1015.00 1014.19 1013.46 1012.79 1012.15
1029.71 1029.68 1029.76 1029.94 1030.21 1030.54 1030.89 1031.25 1031.57 1031.83 1032.01 1032.08 1032.06 1031.93 1031.72 1031.43 1031.07 1030.65 1030.20 1029.72 1029.21 1028.68 1028.14 1027.59 1027.02 1026.44 1025.84 1025.20 1024.53 1023.82 1023.05 1022.22 1021.33 1020.38 1019.40 1018.39 1017.38 1016.39 1015.46 1014.58 1013.78 1013.03 1012.35 1011.69
1029.92 1029.89 1029.94 1030.07 1030.28 1030.53 1030.80 1031.06 1031.29 1031.47 1031.59 1031.62 1031.57 1031.44 1031.23 1030.96 1030.63 1030.25 1029.83 1029.38 1028.91 1028.40 1027.87 1027.33 1026.76 1026.16 1025.55 1024.89 1024.20 1023.46 1022.67 1021.83 1020.93 1019.99 1019.01 1018.02 1017.03 1016.06 1015.14 1014.28 1013.47 1012.73 1012.03 1011.35
1030.00 1029.95 1029.97 1030.05 1030.17 1030.33 1030.50 1030.67 1030.81 1030.91 1030.95 1030.95 1030.88 1030.76 1030.58 1030.35 1030.08 1029.76 1029.40 1029.01 1028.57 1028.10 1027.60 1027.06 1026.49 1025.88 1025.24 1024.56 1023.85 1023.09 1022.29 1021.45 1020.56 1019.64 1018.69 1017.73 1016.77 1015.84 1014.94 1014.09 1013.28 1012.53 1011.81 1011.11
1029.98 1029.91 1029.89 1029.91 1029.95 1030.02 1030.09 1030.15 1030.20 1030.22 1030.22 1030.18 1030.11 1030.01 1029.88 1029.71 1029.51 1029.27 1028.98 1028.65 1028.27 1027.83 1027.35 1026.82 1026.24 1025.62 1024.96 1024.27 1023.53 1022.77 1021.97 1021.14 1020.27 1019.38 1018.47 1017.55 1016.63 1015.72 1014.84 1013.99 1013.17 1012.40 1011.65 1010.92
1029.94 1029.85 1029.78 1029.73 1029.69 1029.67 1029.64 1029.61 1029.58 1029.54 1029.49 1029.44 1029.38 1029.31 1029.23 1029.14 1029.01 1028.84 1028.63 1028.36 1028.02 1027.62 1027.16 1026.63 1026.04 1025.41 1024.73 1024.03 1023.29 1022.52 1021.74 1020.93 1020.10 1019.24 1018.37 1017.48 1016.59 1015.69 1014.81 1013.94 1013.09 1012.27 1011.48 1010.71
1029.95 1029.82 1029.70 1029.59 1029.47 1029.36 1029.25 1029.14 1029.04 1028.95 1028.88 1028.82 1028.78 1028.75 1028.72 1028.68 1028.62 1028.52 1028.36 1028.14 1027.84 1027.47 1027.01 1026.48 1025.89 1025.25 1024.57 1023.85 1023.12 1022.37 1021.61 1020.83 1020.04 1019.22 1018.38 1017.52 1016.63 1015.73 1014.81 1013.90 1012.99 1012.10 1011.23 1010.39
1030.06 1029.88 1029.71 1029.52 1029.34 1029.15 1028.97 1028.80 1028.65 1028.52 1028.43 1028.38 1028.35 1028.35 1028.36 1028.37 1028.35 1028.30 1028.18 1027.99 1027.71 1027.34 1026.89 1026.36 1025.77 1025.13 1024.45 1023.75 1023.03 1022.31 1021.58 1020.84 1020.08 1019.30 1018.48 1017.62 1016.72 1015.78 1014.81 1013.82 1012.82 1011.83 1010.87 1009.95
1030.24 1030.02 1029.78 1029.54 1029.29 1029.05 1028.81 1028.59 1028.41 1028.26 1028.16 1028.10 1028.09 1028.11 1028.14 1028.17 1028.18 1028.14 1028.03 1027.85 1027.58 1027.21 1026.76 1026.24 1025.65 1025.02 1024.36 1023.69 1023.01 1022.33 1021.64 1020.94 1020.21 1019.45 1018.64 1017.76 1016.83 1015.83 1014.78 1013.69 1012.58 1011.47 1010.39 1009.37
1030.46 1030.19 1029.90 1029.61 1029.31 1029.02 1028.75 1028.50 1028.29 1028.13 1028.03 1027.97 1027.96 1027.98 1028.01 1028.04 1028.05 1028.00 1027.89 1027.70 1027.42 1027.05 1026.60 1026.08 1025.51 1024.91 1024.28 1023.65 1023.02 1022.38 1021.74 1021.08 1020.38 1019.63 1018.81 1017.91 1016.92 1015.85 1014.71 1013.51 1012.27 1011.04 1009.85 1008.71
1030.67 1030.35 1030.03 1029.70 1029.37 1029.05 1028.75 1028.49 1028.28 1028.11 1027.99 1027.93 1027.91 1027.91 1027.93 1027.94 1027.92 1027.85 1027.71 1027.50 1027.20 1026.83 1026.39 1025.89 1025.35 1024.78 1024.20 1023.62 1023.04 1022.45 1021.86 1021.23 1020.55 1019.80 1018.97 1018.03 1016.99 1015.84 1014.60 1013.29 1011.95 1010.60 1009.29 1008.05
1030.83 1030.48 1030.12 1029.77 1029.43 1029.10 1028.80 1028.54 1028.32 1028.15 1028.02 1027.94 1027.90 1027.88 1027.86 1027.83 1027.77 1027.66 1027.49 1027.25 1026.94 1026.56 1026.13 1025.66 1025.15 1024.63 1024.10 1023.58 1023.05 1022.51 1021.95 1021.35 1020.69 1019.94 1019.08 1018.10 1017.00 1015.79 1014.47 1013.07 1011.63 1010.19 1008.79 1007.48
1030.92 1030.56 1030.19 1029.83 1029.49 1029.17 1028.88 1028.62 1028.40 1028.22 1028.09 1027.99 1027.91 1027.85 1027.78 1027.70 1027.59 1027.43 1027.22 1026.96 1026.64 1026.27 1025.85 1025.41 1024.94 1024.47 1024.00 1023.53 1023.04 1022.55 1022.01 1021.43 1020.76 1020.00 1019.12 1018.11 1016.96 1015.70 1014.32 1012.87 1011.37 1009.88 1008.43 1007.07
1030.98 1030.61 1030.24 1029.90 1029.56 1029.26 1028.98 1028.73 1028.51 1028.33 1028.17 1028.04 1027.92 1027.81 1027.69 1027.56 1027.39 1027.19 1026.95 1026.66 1026.33 1025.97 1025.58 1025.17 1024.75 1024.33 1023.90 1023.47 1023.02 1022.54 1022.02 1021.43 1020.76 1019.97 1019.07 1018.03 1016.85 1015.56 1014.16 1012.70 1011.19 1009.68 1008.23 1006.87
Thickness
5420 5424 5421 5418 5417 5416 5410 5407 5403 5410 5410 5409 5407 5406 5407 5408 5410 5411 5411 5412 5412 5411 5413 5415 5417 5420 5423 5427 5431 5435 5439 5444 5447 5451 5454 5456 5457 5459 5462 5464 5465 5467 5469 5471
5401 5412 5411 5409 5409 5407 5404 5400 5396 5396 5396 5396 5395 5394 5394 5394 5396 5397 5397 5398 5398 5398 5400 5402 5404 5407 5410 5413 5417 5421 5426 5431 5434 5438 5441 5443 5445 5448 5450 5452 5453 5455 5457 5459
5386 5400 5397 5393 5396 5395 5390 5387 5383 5377 5379 5382 5381 5379 5378 5379 5381 5381 5382 5383 5383 5384 5386 5388 5390 5393 5396 5400 5403 5407 5411 5416 5421 5424 5427 5430 5433 5435 5437 5440 5442 5444 5446 5448
5370 5376 5368 5383 5389 5385 5378 5375 5371 5368 5368 5368 5366 5365 5365 5366 5365 5364 5366 5368 5370 5371 5373 5375 5378 5380 5383 5386 5389 5393 5397 5402 5406 5410 5414 5417 5420 5422 5425 5427 5430 5432 5434 5436
5357 5357 5368 5373 5373 5367 5362 5357 5359 5356 5355 5355 5354 5353 5354 5353 5350 5349 5350 5353 5356 5359 5361 5363 5365 5368 5371 5374 5377 5381 5385 5389 5393 5397 5401 5404 5407 5410 5412 5415 5418 5421 5423 5425
5346 5345 5352 5355 5358 5359 5353 5342 5347 5344 5341 5339 5338 5333 5338 5339 5337 5338 5339 5341 5344 5347 5350 5352 5354 5357 5360 5363 5366 5370 5374 5378 5382 5385 5389 5392 5396 5398 5401 5404 5406 5409 5412 5414
5334 5333 5339 5344 5345 5344 5330 5327 5332 5330 5327 5325 5323 5319 5322 5325 5326 5327 5328 5330 5333 5336 5339 5341 5344 5347 5350 5353 5356 5360 5363 5367 5371 5374 5377 5381 5385 5388 5390 5393 5395 5397 5400 5402
5329 5324 5327 5335 5331 5322 5318 5321 5320 5317 5315 5313 5311 5312 5312 5313 5314 5316 5318 5320 5323 5325 5329 5332 5335 5337 5340 5343 5346 5350 5353 5357 5360 5364 5367 5371 5373 5376 5379 5382 5384 5386 5388 5391
5323 5323 5326 5324 5318 5315 5312 5309 5307 5305 5303 5301 5300 5301 5302 5303 5304 5305 5308 5310 5313 5315 5319 5322 5325 5328 5329 5333 5336 5340 5343 5346 5350 5353 5356 5359 5362 5365 5368 5371 5373 5375 5377 5380
5316 5320 5319 5315 5310 5307 5303 5298 5297 5295 5293 5292 5290 5291 5291 5293 5295 5297 5299 5301 5304 5306 5309 5312 5314 5317 5319 5323 5326 5330 5333 5336 5340 5343 5346 5348 5351 5355 5358 5361 5363 5365 5367 5370
5307 5309 5307 5306 5300 5296 5293 5290 5288 5286 5284 5283 5282 5282 5282 5283 5285 5287 5290 5292 5294 5296 5299 5302 5304 5307 5309 5312 5316 5319 5322 5326 5329 5333 5335 5338 5341 5344 5348 5351 5354 5356 5358 5361
5297 5297 5291 5291 5290 5287 5283 5280 5278 5276 5275 5274 5273 5272 5273 5274 5276 5278 5280 5283 5285 5288 5290 5293 5295 5297 5299 5302 5305 5309 5313 5316 5319 5323 5325 5328 5331 5334 5338 5341 5345 5348 5351 5353
5290 5288 5284 5281 5279 5276 5273 5271 5269 5266 5265 5265 5265 5264 5264 5265 5267 5269 5272 5274 5277 5279 5281 5283 5285 5288 5290 5293 5296 5299 5303 5306 5309 5313 5316 5318 5321 5325 5328 5332 5335 5339 5342 5345
5281 5277 5273 5271 5268 5266 5264 5262 5260 5259 5258 5256 5256 5256 5256 5257 5259 5261 5263 5266 5269 5271 5272 5274 5276 5278 5281 5284 5287 5290 5293 5296 5300 5302 5305 5308 5311 5315 5319 5322 5326 5330 5334 5337
5271 5266 5262 5261 5259 5257 5256 5253 5252 5251 5250 5249 5248 5248 5248 5249 5251 5253 5255 5258 5260 5262 5263 5265 5267 5269 5271 5274 5277 5280 5283 5286 5289 5292 5295 5299 5302 5306 5309 5312 5316 5319 5323 5326
5260 5257 5255 5252 5250 5249 5247 5245 5243 5242 5241 5241 5240 5241 5241 5242 5243 5245 5247 5249 5251 5252 5254 5256 5258 5259 5262 5265 5268 5271 5273 5276 5279 5282 5286 5289 5292 5296 5299 5302 5305 5309 5313 5316
5249 5247 5245 5243 5241 5239 5237 5236 5235 5234 5233 5233 5233 5234 5234 5235 5236 5237 5239 5240 5241 5243 5245 5246 5248 5251 5253 5256 5259 5261 5264 5266 5269 5272 5275 5279 5282 5285 5288 5292 5295 5299 5303 5307
5240 5238 5235 5233 5231 5230 5229 5228 5228 5227 5226 5226 5226 5226 5226 5227 5228 5230 5231 5233 5234 5235 5237 5237 5239 5242 5244 5247 5250 5252 5254 5257 5259 5262 5265 5268 5272 5275 5279 5282 5286 5290 5293 5297
5233 5231 5228 5227 5224 5223 5221 5221 5220 5220 5219 5219 5219 5219 5219 5219 5221 5222 5224 5225 5226 5228 5229 5230 5233 5234 5236 5238 5241 5243 5245 5247 5250 5253 5256 5260 5263 5266 5270 5273 5276 5280 5284 5287
5226 5224 5222 5219 5217 5215 5214 5214 5213 5213 5212 5212 5211 5212 5212 5213 5214 5215 5216 5218 5218 5220 5221 5223 5226 5227 5229 5231 5234 5235 5237 5239 5242 5244 5248 5251 5254 5257 5261 5264 5268 5271 5274 5277
5218 5216 5214 5212 5210 5209 5208 5207 5207 5206 5206 5205 5204 5204 5205 5206 5206 5208 5210 5212 5213 5214 5215 5217 5219 5220 5222 5225 5227 5227 5229 5231 5234 5236 5239 5242 5245 5248 5252 5255 5259 5262 5265 5268
5210 5208 5207 5205 5204 5202 5202 5201 5200 5199 5199 5198 5198 5198 5198 5199 5201 5202 5202 5203 5205 5207 5209 5210 5212 5214 5217 5219 5219 5220 5222 5224 5227 5229 5232 5234 5237 5240 5243 5246 5250 5253 5256 5259
5204 5202 5200 5199 5197 5196 5195 5194 5193 5193 5192 5192 5192 5192 5192 5192 5193 5194 5196 5197 5199 5201 5203 5204 5206 5209 5212 5212 5212 5214 5216 5218 5220 5222 5225 5227 5230 5232 5235 5238 5241 5245 5248 5251
5197 5195 5194 5193 5191 5190 5189 5189 5189 5188 5187 5186 5186 5186 5186 5187 5187 5187 5188 5190 5193 5195 5196 5197 5200 5203 5205 5204 5206 5207 5209 5211 5213 5215 5218 5220 5223 5225 5228 5231 5234 5237 5240 5243
5191 5189 5189 5187 5186 5186 5185 5184 5183 5183 5183 5182 5182 5181 5181 5181 5181 5182 5183 5184 5186 5188 5189 5191 5193 5196 5196 5197 5198 5200 5203 5205 5207 5209 5211 5214 5216 5218 5221 5224 5227 5230 5233 5236
5185 5184 5183 5182 5181 5180 5179 5178 5177 5177 5177 5177 5176 5176 5176 5176 5176 5176 5177 5178 5179 5181 5182 5183 5185 5187 5188 5190 5192 5194 5197 5199 5201 5202 5205 5207 5209 5212 5214 5217 5220 5224 5227 5230
5179 5178 5177 5176 5175 5174 5173 5171 5170 5170 5170 5170 5169 5169 5169 5170 5170 5171 5171 5172 5173 5174 5175 5176 5178 5179 5181 5183 5185 5188 5190 5192 5194 5196 5198 5200 5203 5205 5208 5211 5214 5217 5221 5224